ProjectID,Date,Electric Generation,Electric Utility Import,Facility Electric Load
,YYYY-MM-DD,kW,kW,kW
10,2005-05-09,61.776041666666664,,61.776041666666664
10,2005-05-10,201.00354166666668,,201.00354166666668
10,2005-05-11,222.91716666666665,,222.91716666666665
10,2005-05-12,256.326625,,256.326625
10,2005-05-13,260.59329166666663,,260.59329166666663
10,2005-05-14,260.568,,260.568
10,2005-05-15,262.7210416666667,,262.7210416666667
10,2005-05-16,258.89091666666667,,258.89091666666667
10,2005-05-17,263.05704166666663,,263.05704166666663
10,2005-05-18,263.047375,,263.047375
10,2005-05-19,263.29291666666666,,263.29291666666666
10,2005-05-20,239.78783333333334,,239.78783333333334
10,2005-05-21,252.47083333333333,,252.47083333333333
10,2005-05-22,263.401625,,263.401625
10,2005-05-23,263.0715,,263.0715
10,2005-05-24,263.3702083333333,,263.3702083333333
10,2005-05-25,263.272375,,263.272375
10,2005-05-26,262.8355833333333,,262.8355833333333
10,2005-05-27,219.25483333333332,,219.25483333333332
10,2005-05-28,263.39304166666665,,263.39304166666665
10,2005-05-29,263.44891666666666,,263.44891666666666
10,2005-05-30,263.2135,,263.2135
10,2005-05-31,263.43125000000003,,263.43125000000003
10,2005-06-01,263.54066666666665,,263.54066666666665
10,2005-06-02,263.62804166666666,,263.62804166666666
10,2005-06-03,263.4916666666667,,263.4916666666667
10,2005-06-04,263.489875,,263.489875
10,2005-06-05,263.6501666666667,,263.6501666666667
10,2005-06-06,263.4234583333333,,263.4234583333333
10,2005-06-07,263.4717083333333,,263.4717083333333
10,2005-06-08,263.2563333333333,,263.2563333333333
10,2005-06-09,262.6958333333333,,262.6958333333333
10,2005-06-10,262.65029166666665,,262.65029166666665
10,2005-06-11,262.6955,,262.6955
10,2005-06-12,262.89799999999997,,262.89799999999997
10,2005-06-13,262.56041666666664,,262.56041666666664
10,2005-06-14,262.59679166666666,,262.59679166666666
10,2005-06-15,262.65120833333333,,262.65120833333333
10,2005-06-16,262.9265833333333,,262.9265833333333
10,2005-06-17,262.4195,,262.4195
10,2005-06-18,262.32266666666663,,262.32266666666663
10,2005-06-19,262.760625,,262.760625
10,2005-06-20,262.80191666666667,,262.80191666666667
10,2005-06-21,262.0855833333333,,262.0855833333333
10,2005-06-22,261.811875,,261.811875
10,2005-06-23,262.169125,,262.169125
10,2005-06-24,262.02883333333335,,262.02883333333335
10,2005-06-25,262.91974999999996,,262.91974999999996
10,2005-06-26,256.66333333333336,,256.66333333333336
10,2005-06-27,233.7225,,233.7225
10,2005-06-28,233.59633333333332,,233.59633333333332
10,2005-06-29,233.3875416666667,,233.3875416666667
10,2005-06-30,244.19841666666665,,244.19841666666665
10,2005-07-01,263.42625,,263.42625
10,2005-07-02,264.12079166666666,,264.12079166666666
10,2005-07-03,263.528125,,263.528125
10,2005-07-04,263.79295833333333,,263.79295833333333
10,2005-07-05,263.623375,,263.623375
10,2005-07-06,263.75712500000003,,263.75712500000003
10,2005-07-07,263.58729166666666,,263.58729166666666
10,2005-07-08,263.73475,,263.73475
10,2005-07-09,263.39479166666666,,263.39479166666666
10,2005-07-10,263.8519166666667,,263.8519166666667
10,2005-07-11,263.8034166666667,,263.8034166666667
10,2005-07-12,232.96004166666668,,232.96004166666668
10,2005-07-13,262.978,,262.978
10,2005-07-14,263.78366666666665,,263.78366666666665
10,2005-07-15,263.53804166666663,,263.53804166666663
10,2005-07-16,263.70370833333334,,263.70370833333334
10,2005-07-17,263.83633333333336,,263.83633333333336
10,2005-07-18,263.45433333333335,,263.45433333333335
10,2005-07-19,263.75775,,263.75775
10,2005-07-20,263.78341666666665,,263.78341666666665
10,2005-07-21,263.58341666666666,,263.58341666666666
10,2005-07-22,263.65820833333333,,263.65820833333333
10,2005-07-23,263.56445833333333,,263.56445833333333
10,2005-07-24,263.29025,,263.29025
10,2005-07-25,263.5505416666667,,263.5505416666667
10,2005-07-26,263.736375,,263.736375
10,2005-07-27,263.720625,,263.720625
10,2005-07-28,264.025375,,264.025375
10,2005-07-29,263.798,,263.798
10,2005-07-30,263.87308333333334,,263.87308333333334
10,2005-07-31,263.6849583333333,,263.6849583333333
10,2005-08-01,263.83979166666666,,263.83979166666666
10,2005-08-02,152.81283333333332,,152.81283333333332
10,2005-08-03,112.80908333333333,,112.80908333333333
10,2005-08-04,113.54308333333334,,113.54308333333334
10,2005-08-05,113.61054166666666,,113.61054166666666
10,2005-08-06,113.277375,,113.277375
10,2005-08-07,113.52816666666666,,113.52816666666666
10,2005-08-08,113.80033333333334,,113.80033333333334
10,2005-08-09,113.918625,,113.918625
10,2005-08-10,113.05970833333333,,113.05970833333333
10,2005-08-11,112.761625,,112.761625
10,2005-08-12,113.44458333333334,,113.44458333333334
10,2005-08-13,112.98808333333334,,112.98808333333334
10,2005-08-14,113.24883333333334,,113.24883333333334
10,2005-08-15,163.289875,,163.289875
10,2005-08-16,263.9135416666667,,263.9135416666667
10,2005-08-17,263.47679166666666,,263.47679166666666
10,2005-08-18,227.12545833333334,,227.12545833333334
10,2005-08-19,263.4302083333333,,263.4302083333333
10,2005-08-20,263.277875,,263.277875
10,2005-08-21,263.4614583333333,,263.4614583333333
10,2005-08-22,263.44025,,263.44025
10,2005-08-23,263.25308333333334,,263.25308333333334
10,2005-08-24,263.41725,,263.41725
10,2005-08-25,264.01591666666667,,264.01591666666667
10,2005-08-26,263.57416666666666,,263.57416666666666
10,2005-08-27,263.67575,,263.67575
10,2005-08-28,263.98825,,263.98825
10,2005-08-29,263.640625,,263.640625
10,2005-08-30,263.5719583333333,,263.5719583333333
10,2005-08-31,263.9934583333333,,263.9934583333333
10,2005-09-01,263.62083333333334,,263.62083333333334
10,2005-09-02,263.6694166666667,,263.6694166666667
10,2005-09-03,263.50441666666666,,263.50441666666666
10,2005-09-04,263.81083333333333,,263.81083333333333
10,2005-09-05,263.42716666666666,,263.42716666666666
10,2005-09-06,263.0914583333333,,263.0914583333333
10,2005-09-07,263.21683333333334,,263.21683333333334
10,2005-09-08,196.10095833333332,,196.10095833333332
10,2005-09-09,259.13325000000003,,259.13325000000003
10,2005-09-10,263.965125,,263.965125
10,2005-09-11,263.30079166666667,,263.30079166666667
10,2005-09-12,263.3086666666667,,263.3086666666667
10,2005-09-13,130.77091666666666,,130.77091666666666
10,2005-09-14,36.85008333333334,,36.85008333333334
10,2005-09-15,57.00333333333333,,57.00333333333333
10,2005-09-16,148.48495833333334,,148.48495833333334
10,2005-09-17,215.33741666666666,,215.33741666666666
10,2005-09-18,215.31291666666667,,215.31291666666667
10,2005-09-19,165.87929166666666,,165.87929166666666
10,2005-09-20,215.494,,215.494
10,2005-09-21,191.07875,,191.07875
10,2005-09-22,216.14329166666667,,216.14329166666667
10,2005-09-23,216.09345833333336,,216.09345833333336
10,2005-09-24,216.26504166666666,,216.26504166666666
10,2005-09-25,215.3998333333333,,215.3998333333333
10,2005-09-26,215.38924999999998,,215.38924999999998
10,2005-09-27,216.097,,216.097
10,2005-09-28,159.51295833333333,,159.51295833333333
10,2005-09-29,264.4512916666667,,264.4512916666667
10,2005-09-30,264.0643333333333,,264.0643333333333
10,2005-10-01,264.0915,,264.0915
10,2005-10-02,264.5826666666667,,264.5826666666667
10,2005-10-03,264.034875,,264.034875
10,2005-10-04,264.4124166666667,,264.4124166666667
10,2005-10-05,264.64125,,264.64125
10,2005-10-06,192.21245833333333,,192.21245833333333
10,2005-10-07,263.95729166666666,,263.95729166666666
10,2005-10-08,264.40479166666665,,264.40479166666665
10,2005-10-09,264.58020833333336,,264.58020833333336
10,2005-10-10,264.38558333333333,,264.38558333333333
10,2005-10-11,264.29283333333336,,264.29283333333336
10,2005-10-12,264.2708333333333,,264.2708333333333
10,2005-10-13,264.32099999999997,,264.32099999999997
10,2005-10-14,264.54825,,264.54825
10,2005-10-15,263.89799999999997,,263.89799999999997
10,2005-10-16,264.68966666666665,,264.68966666666665
10,2005-10-17,264.46245833333336,,264.46245833333336
10,2005-10-18,263.9986666666667,,263.9986666666667
10,2005-10-19,264.24741666666665,,264.24741666666665
10,2005-10-20,264.15641666666664,,264.15641666666664
10,2005-10-21,264.511,,264.511
10,2005-10-22,264.25483333333335,,264.25483333333335
10,2005-10-23,264.29854166666667,,264.29854166666667
10,2005-10-24,264.6465416666667,,264.6465416666667
10,2005-10-25,264.07783333333333,,264.07783333333333
10,2005-10-26,12.474083333333333,,12.474083333333333
10,2005-10-27,88.77354166666667,,88.77354166666667
10,2005-10-28,263.949,,263.949
10,2005-10-29,264.01662500000003,,264.01662500000003
10,2005-10-30,263.742125,,263.742125
10,2005-10-31,263.8444583333333,,263.8444583333333
10,2005-11-01,263.57379166666664,,263.57379166666664
10,2005-11-02,263.91158333333334,,263.91158333333334
10,2005-11-03,264.41129166666667,,264.41129166666667
10,2005-11-04,264.25258333333335,,264.25258333333335
10,2005-11-05,263.66454166666665,,263.66454166666665
10,2005-11-06,263.74304166666667,,263.74304166666667
10,2005-11-07,188.485375,,188.485375
10,2005-11-08,264.45366666666666,,264.45366666666666
10,2005-11-09,263.839125,,263.839125
10,2005-11-10,263.8421666666667,,263.8421666666667
10,2005-11-11,263.84616666666665,,263.84616666666665
10,2005-11-12,123.33,,123.33
10,2005-11-13,15.464333333333334,,15.464333333333334
10,2005-11-14,2.2561666666666667,,2.2561666666666667
10,2005-11-15,37.504958333333335,,37.504958333333335
10,2005-11-16,263.3365,,263.3365
10,2005-11-17,264.152875,,264.152875
10,2005-11-18,261.43649999999997,,261.43649999999997
10,2005-11-19,259.84375,,259.84375
10,2005-11-20,259.60195833333336,,259.60195833333336
10,2005-11-21,97.2835,,97.2835
10,2005-11-22,215.93483333333333,,215.93483333333333
10,2005-11-23,248.32337500000003,,248.32337500000003
10,2005-11-24,18.160541666666667,,18.160541666666667
10,2005-11-25,0.0,,0.0
10,2005-11-26,118.979125,,118.979125
10,2005-11-27,259.11449999999996,,259.11449999999996
10,2005-11-28,133.93725,,133.93725
10,2005-11-29,256.31316666666663,,256.31316666666663
10,2005-11-30,259.41220833333335,,259.41220833333335
10,2005-12-01,259.49341666666663,,259.49341666666663
10,2005-12-02,259.84583333333336,,259.84583333333336
10,2005-12-03,259.76958333333334,,259.76958333333334
10,2005-12-04,259.57733333333334,,259.57733333333334
10,2005-12-05,259.653875,,259.653875
10,2005-12-06,260.0131666666667,,260.0131666666667
10,2005-12-07,259.7640416666667,,259.7640416666667
10,2005-12-08,260.24258333333336,,260.24258333333336
10,2005-12-09,259.7392916666667,,259.7392916666667
10,2005-12-10,259.4920416666667,,259.4920416666667
10,2005-12-11,259.43825,,259.43825
10,2005-12-12,259.15841666666665,,259.15841666666665
10,2005-12-13,221.29733333333334,,221.29733333333334
10,2005-12-14,138.51945833333335,,138.51945833333335
10,2005-12-15,138.35725,,138.35725
10,2005-12-16,139.03912499999998,,139.03912499999998
10,2005-12-17,138.795625,,138.795625
10,2005-12-18,138.89545833333332,,138.89545833333332
10,2005-12-19,138.501,,138.501
10,2005-12-20,105.48741666666666,,105.48741666666666
10,2005-12-21,63.55279166666667,,63.55279166666667
10,2005-12-22,63.55108333333334,,63.55108333333334
10,2005-12-23,64.67541666666666,,64.67541666666666
10,2005-12-24,64.64604166666668,,64.64604166666668
10,2005-12-25,64.35579166666666,,64.35579166666666
10,2005-12-26,64.20625,,64.20625
10,2005-12-27,64.42337500000001,,64.42337500000001
10,2005-12-28,64.636,,64.636
10,2005-12-29,64.00629166666667,,64.00629166666667
10,2005-12-30,64.35370833333333,,64.35370833333333
10,2005-12-31,63.803041666666665,,63.803041666666665
10,2006-01-01,64.46925,,64.46925
10,2006-01-02,64.46458333333334,,64.46458333333334
10,2006-01-03,64.14395833333333,,64.14395833333333
10,2006-01-04,64.3,,64.3
10,2006-01-05,64.54116666666667,,64.54116666666667
10,2006-01-06,64.14091666666667,,64.14091666666667
10,2006-01-07,63.9065,,63.9065
10,2006-01-08,64.23054166666667,,64.23054166666667
10,2006-01-09,64.45495833333334,,64.45495833333334
10,2006-01-10,64.47129166666666,,64.47129166666666
10,2006-01-11,64.60912499999999,,64.60912499999999
10,2006-01-12,64.31462499999999,,64.31462499999999
10,2006-01-13,64.19854166666667,,64.19854166666667
10,2006-01-14,63.254875,,63.254875
10,2006-01-15,63.625,,63.625
10,2006-01-16,63.079791666666665,,63.079791666666665
10,2006-01-17,68.77920833333333,,68.77920833333333
10,2006-01-18,256.60675,,256.60675
10,2006-01-19,259.760375,,259.760375
10,2006-01-20,259.71958333333333,,259.71958333333333
10,2006-01-21,259.625625,,259.625625
10,2006-01-22,259.5132916666667,,259.5132916666667
10,2006-01-23,259.57525,,259.57525
10,2006-01-24,164.28479166666668,,164.28479166666668
10,2006-01-25,119.65445833333332,,119.65445833333332
10,2006-01-26,84.52754166666666,,84.52754166666666
10,2006-01-27,112.38016666666665,,112.38016666666665
10,2006-01-28,49.47029166666667,,49.47029166666667
10,2006-01-29,28.5645,,28.5645
10,2006-01-30,120.07254166666667,,120.07254166666667
10,2006-01-31,260.0796666666667,,260.0796666666667
10,2006-02-01,259.944,,259.944
10,2006-02-02,260.02120833333333,,260.02120833333333
10,2006-02-03,120.57579166666666,,120.57579166666666
10,2006-02-04,61.472208333333334,,61.472208333333334
10,2006-02-05,260.25820833333336,,260.25820833333336
10,2006-02-06,259.92625,,259.92625
10,2006-02-07,260.22274999999996,,260.22274999999996
10,2006-02-08,259.74058333333335,,259.74058333333335
10,2006-02-09,259.95575,,259.95575
10,2006-02-10,259.7107916666667,,259.7107916666667
10,2006-02-11,259.782625,,259.782625
10,2006-02-12,54.297374999999995,,54.297374999999995
10,2006-02-13,104.457125,,104.457125
10,2006-02-14,259.9230416666667,,259.9230416666667
10,2006-02-15,259.85375,,259.85375
10,2006-02-16,260.09229166666665,,260.09229166666665
10,2006-02-17,259.98758333333336,,259.98758333333336
10,2006-02-18,260.306,,260.306
10,2006-02-19,259.83520833333336,,259.83520833333336
10,2006-02-20,259.9645,,259.9645
10,2006-02-21,260.04179166666665,,260.04179166666665
10,2006-02-22,259.2105833333333,,259.2105833333333
10,2006-02-23,260.13849999999996,,260.13849999999996
10,2006-02-24,260.01475,,260.01475
10,2006-02-25,259.845625,,259.845625
10,2006-02-26,259.3734583333333,,259.3734583333333
10,2006-02-27,259.80516666666665,,259.80516666666665
10,2006-02-28,259.466875,,259.466875
10,2006-03-01,260.0872083333333,,260.0872083333333
10,2006-03-02,161.00545833333334,,161.00545833333334
10,2006-03-03,245.04212500000003,,245.04212500000003
10,2006-03-04,259.59049999999996,,259.59049999999996
10,2006-03-05,259.79587499999997,,259.79587499999997
10,2006-03-06,259.464375,,259.464375
10,2006-03-07,259.42525,,259.42525
10,2006-03-08,259.69379166666664,,259.69379166666664
10,2006-03-09,260.19804166666665,,260.19804166666665
10,2006-03-10,259.94725,,259.94725
10,2006-03-11,260.23904166666665,,260.23904166666665
10,2006-03-12,249.25312499999998,,249.25312499999998
10,2006-03-13,259.83637500000003,,259.83637500000003
10,2006-03-14,260.42041666666665,,260.42041666666665
10,2006-03-15,259.7692083333333,,259.7692083333333
10,2006-03-16,259.8876666666667,,259.8876666666667
10,2006-03-17,140.438375,,140.438375
10,2006-03-18,258.4927916666667,,258.4927916666667
10,2006-03-19,260.1621666666667,,260.1621666666667
10,2006-03-20,80.63558333333333,,80.63558333333333
10,2006-03-21,164.56725,,164.56725
10,2006-03-22,91.02583333333332,,91.02583333333332
10,2006-03-23,120.37783333333334,,120.37783333333334
10,2006-03-24,198.8605,,198.8605
10,2006-03-25,198.78966666666668,,198.78966666666668
10,2006-03-26,198.41958333333332,,198.41958333333332
10,2006-03-27,164.2475,,164.2475
10,2006-03-28,244.4145,,244.4145
10,2006-03-29,265.0203333333333,,265.0203333333333
10,2006-03-30,264.74870833333335,,264.74870833333335
10,2006-03-31,263.97612499999997,,263.97612499999997
10,2006-04-01,264.14070833333335,,264.14070833333335
10,2006-04-02,264.7110833333333,,264.7110833333333
10,2006-04-03,264.85949999999997,,264.85949999999997
10,2006-04-04,265.1225,,265.1225
10,2006-04-05,265.47612499999997,,265.47612499999997
10,2006-04-06,265.729875,,265.729875
10,2006-04-07,264.7796666666667,,264.7796666666667
10,2006-04-08,265.07141666666666,,265.07141666666666
10,2006-04-09,265.398625,,265.398625
10,2006-04-10,265.218375,,265.218375
10,2006-04-11,264.96120833333333,,264.96120833333333
10,2006-04-12,264.19666666666666,,264.19666666666666
10,2006-04-13,264.664125,,264.664125
10,2006-04-14,264.61975,,264.61975
10,2006-04-15,263.31462500000004,,263.31462500000004
10,2006-04-16,264.03112500000003,,264.03112500000003
10,2006-04-17,152.728,,152.728
10,2006-04-18,166.1325,,166.1325
10,2006-04-19,263.73520833333333,,263.73520833333333
10,2006-04-20,263.28545833333334,,263.28545833333334
10,2006-04-21,263.99341666666663,,263.99341666666663
10,2006-04-22,264.6465416666667,,264.6465416666667
10,2006-04-23,264.575125,,264.575125
10,2006-04-24,263.6817916666667,,263.6817916666667
10,2006-04-25,263.6069166666667,,263.6069166666667
10,2006-04-26,264.467375,,264.467375
10,2006-04-27,263.2386666666667,,263.2386666666667
10,2006-04-28,246.024375,,246.024375
10,2006-04-29,219.26795833333333,,219.26795833333333
10,2006-04-30,164.28879166666667,,164.28879166666667
10,2006-05-01,136.86754166666665,,136.86754166666665
10,2006-05-02,93.65420833333333,,93.65420833333333
10,2006-05-03,63.816583333333334,,63.816583333333334
10,2006-05-04,106.50712499999999,,106.50712499999999
10,2006-05-05,262.36225,,262.36225
10,2006-05-06,262.9462916666667,,262.9462916666667
10,2006-05-07,263.4214583333333,,263.4214583333333
10,2006-05-08,263.9295416666667,,263.9295416666667
10,2006-05-09,263.57300000000004,,263.57300000000004
10,2006-05-10,263.1236666666667,,263.1236666666667
10,2006-05-11,263.17312499999997,,263.17312499999997
10,2006-05-12,263.10525,,263.10525
10,2006-05-13,262.93533333333335,,262.93533333333335
10,2006-05-14,263.4562916666667,,263.4562916666667
10,2006-05-15,263.47525,,263.47525
10,2006-05-16,263.5020416666667,,263.5020416666667
10,2006-05-17,262.87320833333337,,262.87320833333337
10,2006-05-18,262.72116666666665,,262.72116666666665
10,2006-05-19,263.62708333333336,,263.62708333333336
10,2006-05-20,263.4062083333333,,263.4062083333333
10,2006-05-21,262.96808333333337,,262.96808333333337
10,2006-05-22,263.80608333333333,,263.80608333333333
10,2006-05-23,263.66141666666664,,263.66141666666664
10,2006-05-24,262.3301666666667,,262.3301666666667
10,2006-05-25,261.9867083333333,,261.9867083333333
10,2006-05-26,261.7062916666667,,261.7062916666667
10,2006-05-27,209.47983333333332,,209.47983333333332
10,2006-05-28,111.05220833333334,,111.05220833333334
10,2006-05-29,112.91354166666667,,112.91354166666667
10,2006-05-30,106.49608333333333,,106.49608333333333
10,2006-05-31,255.39825,,255.39825
10,2006-06-01,258.3335,,258.3335
10,2006-06-02,258.741,,258.741
10,2006-06-03,259.26270833333336,,259.26270833333336
10,2006-06-04,259.48466666666667,,259.48466666666667
10,2006-06-05,248.23829166666667,,248.23829166666667
10,2006-06-06,258.6715,,258.6715
10,2006-06-07,258.9361666666667,,258.9361666666667
10,2006-06-08,183.17154166666668,,183.17154166666668
10,2006-06-09,258.1634583333333,,258.1634583333333
10,2006-06-10,258.70170833333333,,258.70170833333333
10,2006-06-11,258.66204166666665,,258.66204166666665
10,2006-06-12,258.1882083333333,,258.1882083333333
10,2006-06-13,257.58508333333333,,257.58508333333333
10,2006-06-14,257.62174999999996,,257.62174999999996
10,2006-06-15,257.73016666666666,,257.73016666666666
10,2006-06-16,204.97233333333335,,204.97233333333335
10,2006-06-17,257.38191666666665,,257.38191666666665
10,2006-06-18,256.98679166666665,,256.98679166666665
10,2006-06-19,257.0699583333333,,257.0699583333333
10,2006-06-20,257.486,,257.486
10,2006-06-21,257.6785,,257.6785
10,2006-06-22,257.36062499999997,,257.36062499999997
10,2006-06-23,257.37579166666666,,257.37579166666666
10,2006-06-24,184.17633333333333,,184.17633333333333
10,2006-06-25,249.66829166666665,,249.66829166666665
10,2006-06-26,257.72658333333334,,257.72658333333334
10,2006-06-27,257.64658333333335,,257.64658333333335
10,2006-06-28,216.53979166666667,,216.53979166666667
10,2006-06-29,257.5540833333333,,257.5540833333333
10,2006-06-30,258.32933333333335,,258.32933333333335
10,2006-07-01,258.00179166666663,,258.00179166666663
10,2006-07-02,257.69804166666665,,257.69804166666665
10,2006-07-03,257.62575,,257.62575
10,2006-07-04,257.4400416666667,,257.4400416666667
10,2006-07-05,247.26216666666667,,247.26216666666667
10,2006-07-06,258.1616666666667,,258.1616666666667
10,2006-07-07,257.77158333333335,,257.77158333333335
10,2006-07-08,257.318,,257.318
10,2006-07-09,256.7579583333333,,256.7579583333333
10,2006-07-10,257.74666666666667,,257.74666666666667
10,2006-07-11,256.923,,256.923
10,2006-07-12,256.88462499999997,,256.88462499999997
10,2006-07-13,257.28454166666666,,257.28454166666666
10,2006-07-14,257.6499166666667,,257.6499166666667
10,2006-07-15,256.8609583333333,,256.8609583333333
10,2006-07-16,256.7642916666667,,256.7642916666667
10,2006-07-17,256.21433333333334,,256.21433333333334
10,2006-07-18,255.87866666666665,,255.87866666666665
10,2006-07-19,217.16391666666667,,217.16391666666667
10,2006-07-20,186.25266666666667,,186.25266666666667
10,2006-07-21,256.3219583333333,,256.3219583333333
10,2006-07-22,257.103,,257.103
10,2006-07-23,257.27975,,257.27975
10,2006-07-24,257.6735,,257.6735
10,2006-07-25,256.953375,,256.953375
10,2006-07-26,109.54458333333334,,109.54458333333334
10,2006-07-27,224.734,,224.734
10,2006-07-28,231.01037499999998,,231.01037499999998
10,2006-07-29,215.37,,215.37
10,2006-07-30,221.63104166666668,,221.63104166666668
10,2006-07-31,238.13566666666668,,238.13566666666668
10,2006-08-01,190.179625,,190.179625
10,2006-08-02,171.81208333333333,,171.81208333333333
10,2006-08-03,226.40054166666667,,226.40054166666667
10,2006-08-04,255.60333333333332,,255.60333333333332
10,2006-08-05,255.8842083333333,,255.8842083333333
10,2006-08-06,256.787875,,256.787875
10,2006-08-07,255.3457083333333,,255.3457083333333
10,2006-08-08,256.5022916666667,,256.5022916666667
10,2006-08-09,256.20170833333333,,256.20170833333333
10,2006-08-10,255.81116666666665,,255.81116666666665
10,2006-08-11,256.20779166666665,,256.20779166666665
10,2006-08-12,256.92900000000003,,256.92900000000003
10,2006-08-13,256.665375,,256.665375
10,2006-08-14,255.71349999999998,,255.71349999999998
10,2006-08-15,255.63466666666667,,255.63466666666667
10,2006-08-16,256.0955,,256.0955
10,2006-08-17,128.040875,,128.040875
10,2006-08-18,217.45670833333335,,217.45670833333335
10,2006-08-19,255.52116666666666,,255.52116666666666
10,2006-08-20,256.20875,,256.20875
10,2006-08-21,256.07275,,256.07275
10,2006-08-22,255.78054166666666,,255.78054166666666
10,2006-08-23,255.57779166666668,,255.57779166666668
10,2006-08-24,216.37183333333334,,216.37183333333334
10,2006-08-25,195.69316666666668,,195.69316666666668
10,2006-08-26,256.779375,,256.779375
10,2006-08-27,256.3882916666667,,256.3882916666667
10,2006-08-28,176.02275,,176.02275
10,2006-08-29,255.55225,,255.55225
10,2006-08-30,117.53108333333334,,117.53108333333334
10,2006-08-31,0.0,,0.0
10,2006-09-01,0.0,,0.0
10,2006-09-02,0.0,,0.0
10,2006-09-03,0.0,,0.0
10,2006-09-04,0.0,,0.0
10,2006-09-05,0.0,,0.0
10,2006-09-06,0.0,,0.0
10,2006-09-07,0.0,,0.0
10,2006-09-08,0.0,,0.0
10,2006-09-09,0.0,,0.0
10,2006-09-10,0.0,,0.0
10,2006-09-11,0.0,,0.0
10,2006-09-12,0.0,,0.0
10,2006-09-13,0.0,,0.0
10,2006-09-14,0.0,,0.0
10,2006-09-15,0.0,,0.0
10,2006-09-16,0.0,,0.0
10,2006-09-17,0.0,,0.0
10,2006-09-18,0.6969166666666666,,0.6969166666666666
10,2006-09-19,30.741625,,30.741625
10,2006-09-20,252.006875,,252.006875
10,2006-09-21,256.99216666666666,,256.99216666666666
10,2006-09-22,256.5525833333333,,256.5525833333333